Погода в Успенском

Россия / Орловская область     52°24′00″N   37°43′41″E
темп.,
°C
ветер,
м/с
пор.,
м/с
влажн.,
%
обл.,
%
осадки,
мм/ч
давл.,
гПа
погр.,
м
28 ноября, вс
вс2800:00+3ю51197100 0.1 1005316
03:00+3ю4109874 0.1 1005277
06:00+4ююз4999100 0.0 1005340
09:00+4ююз379897 0.0 1007185
12:00+6ююз369299 0.0 1008283
15:00+6юз348998 0.0 1009235
18:00+6ю3486100 0.0 1010112
21:00+6ююв5786100 0.0 1010348
29 ноября, пн
пн2900:00+6юв3787100 0.0 1009187
03:00+4вюв41095100 0.0 1007252
06:00+5вюв51098100 0.3 1004291
09:00+6вюв71498100 6.4 1001515
12:00+7ю51298100 1.6 998443
15:00+9ю51297100 1.8 997536
18:00+8ююв51295100 0.5 995480
21:00+8вюв61398100 2.3 990556
30 ноября, вт
вт3000:00+10ю81694100 6.4 9831005
03:00+9ююз81782100 8.4 9801141
06:00+7юз141987100 1.8 9801316
09:00+2юз142393100 2.4 9851251
12:00+2зюз142174100 0.4 9881263
15:00+2зюз132069100 0.4 9901259
18:00+1зюз101671100 0.0 9921250
21:00+1юз9167372 0.0 9921152
1 декабря, ср
ср100:00−1зюз7138176 0.0 992807
03:00−1зюз8127985 0.1 9921141
06:00−2зюз81278100 0.1 9921057
09:00−2зюз7129099 0.3 9941010
12:00−2з81290100 0.8 9951041
15:00−2з81291100 1.7 996996
18:00−3з81288100 0.4 999906
21:00−3з7128295 0.5 1000797
2 декабря, чт
чт200:00−4зсз7107897 0.0 1003763
03:00−5з498533 0.1 1005545
06:00−5зюз498889 0.0 1006416
09:00−4ююз41085100 0.0 1006376
12:00−1ююз71382100 0.0 1005644
15:00−1ююз81695100 1.3 1004701
18:00+1юз71594100 0.2 1005634
21:00+1юз61488100 0.2 1006456